Hourly Weather Dabrowica

Today, 17 April, Saturday

Time Temperature Precipitation Wind Pressure Humidity
00:00 +6°C° 0.5 mm 2 mps 752 mmHg 97%
01:00 +6°C° 0.5 mm 2 mps 751 mmHg 98%
02:00 +6°C° 0.2 mm 2 mps 752 mmHg 98%
03:00 +6°C° 0.2 mm 2 mps 752 mmHg 98%
04:00 +6°C° 0.2 mm 2 mps 752 mmHg 98%
05:00 +7°C° 0 mm 3 mps 752 mmHg 95%
06:00 +7°C° 0 mm 3 mps 752 mmHg 93%
07:00 +8°C° 0 mm 3 mps 752 mmHg 90%
08:00 +8°C° 0 mm 3 mps 753 mmHg 88%
09:00 +9°C° 0 mm 3 mps 753 mmHg 85%
10:00 +9°C° 0 mm 3 mps 753 mmHg 82%
11:00 +10°C° 0.2 mm 3 mps 753 mmHg 79%
12:00 +11°C° 0.2 mm 3 mps 753 mmHg 75%
13:00 +12°C° 0.2 mm 2 mps 753 mmHg 71%
14:00 +12°C° 0.2 mm 2 mps 753 mmHg 71%
15:00 +13°C° 0.2 mm 2 mps 753 mmHg 70%
16:00 +13°C° 0.2 mm 2 mps 753 mmHg 69%
17:00 +12°C° 0.1 mm 1 mps 753 mmHg 74%
18:00 +10°C° 0.1 mm 1 mps 754 mmHg 79%
19:00 +9°C° 0.1 mm 1 mps 754 mmHg 84%
20:00 +9°C° 0 mm 1 mps 754 mmHg 86%
21:00 +8°C° 0 mm 1 mps 754 mmHg 89%
22:00 +7°C° 0 mm 1 mps 754 mmHg 91%
23:00 +7°C° 0 mm 1 mps 754 mmHg 92%

Tomorrow, 18 April, Sunday

Time Temperature Precipitation Wind Pressure Humidity
00:00 +7°C° 0 mm 1 mps 754 mmHg 93%
01:00 +6°C° 0 mm 1 mps 754 mmHg 94%
02:00 +6°C° 0 mm 1 mps 754 mmHg 94%
03:00 +6°C° 0 mm 1 mps 754 mmHg 94%
04:00 +5°C° 0 mm 1 mps 754 mmHg 95%
05:00 +6°C° 0 mm 1 mps 754 mmHg 91%
06:00 +8°C° 0 mm 1 mps 754 mmHg 88%
07:00 +9°C° 0 mm 1 mps 754 mmHg 84%
08:00 +10°C° 0 mm 1 mps 754 mmHg 80%
09:00 +10°C° 0 mm 2 mps 754 mmHg 75%
10:00 +13°C° 0 mm 2 mps 754 mmHg 70%
11:00 +13°C° 0 mm 2 mps 754 mmHg 69%
12:00 +14°C° 0 mm 2 mps 754 mmHg 69%
13:00 +14°C° 0 mm 2 mps 754 mmHg 68%
14:00 +14°C° 0.2 mm 2 mps 754 mmHg 72%
15:00 +13°C° 0.2 mm 2 mps 754 mmHg 76%
16:00 +13°C° 0.2 mm 2 mps 753 mmHg 80%
17:00 +11°C° 0.1 mm 3 mps 754 mmHg 83%
18:00 +11°C° 0.1 mm 3 mps 754 mmHg 85%
19:00 +10°C° 0.1 mm 3 mps 754 mmHg 88%
20:00 +10°C° 0 mm 3 mps 754 mmHg 88%
21:00 +10°C° 0 mm 3 mps 754 mmHg 89%
22:00 +9°C° 0 mm 3 mps 754 mmHg 89%
23:00 +9°C° 0 mm 3 mps 754 mmHg 89%

Day after tomorrow, 19 April, Monday

Time Temperature Precipitation Wind Pressure Humidity
00:00 +9°C° 0 mm 3 mps 754 mmHg 89%
01:00 +9°C° 0 mm 3 mps 754 mmHg 89%
02:00 +8°C° 0 mm 3 mps 754 mmHg 90%
03:00 +7°C° 0 mm 3 mps 754 mmHg 92%
04:00 +5°C° 0 mm 3 mps 754 mmHg 93%
05:00 +5°C° 0 mm 4 mps 754 mmHg 90%
06:00 +6°C° 0 mm 4 mps 754 mmHg 88%
07:00 +7°C° 0 mm 4 mps 754 mmHg 85%
08:00 +8°C° 0 mm 4 mps 754 mmHg 81%
09:00 +10°C° 0 mm 4 mps 754 mmHg 76%
10:00 +11°C° 0 mm 4 mps 754 mmHg 72%
11:00 +12°C° 0.1 mm 4 mps 753 mmHg 67%
12:00 +12°C° 0.1 mm 4 mps 753 mmHg 63%
13:00 +13°C° 0.1 mm 4 mps 753 mmHg 58%
14:00 +13°C° 0.2 mm 4 mps 753 mmHg 62%
15:00 +12°C° 0.2 mm 4 mps 753 mmHg 66%
16:00 +12°C° 0.2 mm 4 mps 752 mmHg 69%
17:00 +10°C° 0.1 mm 4 mps 752 mmHg 73%
18:00 +8°C° 0.1 mm 4 mps 752 mmHg 76%
19:00 +7°C° 0.1 mm 4 mps 752 mmHg 79%
20:00 +6°C° 0 mm 4 mps 752 mmHg 82%
21:00 +5°C° 0 mm 3 mps 752 mmHg 85%
22:00 +5°C° 0 mm 3 mps 752 mmHg 88%
23:00 +5°C° 0 mm 2 mps 752 mmHg 88%

20 April, Tuesday

Time Temperature Precipitation Wind Pressure Humidity
00:00 +5°C° 0 mm 2 mps 752 mmHg 87%
01:00 +5°C° 0 mm 2 mps 751 mmHg 87%
02:00 +5°C° 0 mm 2 mps 751 mmHg 87%
03:00 +6°C° 0 mm 2 mps 751 mmHg 88%
04:00 +6°C° 0 mm 2 mps 751 mmHg 88%
05:00 +7°C° 0.1 mm 2 mps 750 mmHg 86%
06:00 +7°C° 0.1 mm 2 mps 750 mmHg 83%
07:00 +8°C° 0.1 mm 2 mps 750 mmHg 80%
08:00 +9°C° 0.3 mm 2 mps 750 mmHg 76%
09:00 +9°C° 0.3 mm 2 mps 750 mmHg 72%
10:00 +10°C° 0.3 mm 3 mps 749 mmHg 67%
11:00 +10°C° 0.3 mm 3 mps 749 mmHg 66%
12:00 +11°C° 0.3 mm 3 mps 749 mmHg 64%
13:00 +11°C° 0.3 mm 3 mps 748 mmHg 63%
14:00 +11°C° 0.2 mm 3 mps 748 mmHg 63%
15:00 +11°C° 0.2 mm 3 mps 748 mmHg 64%
16:00 +11°C° 0.2 mm 3 mps 747 mmHg 65%
17:00 +10°C° 0.1 mm 3 mps 747 mmHg 69%
18:00 +8°C° 0.1 mm 2 mps 747 mmHg 74%
19:00 +7°C° 0.1 mm 2 mps 747 mmHg 79%
20:00 +7°C° 0 mm 2 mps 747 mmHg 82%
21:00 +6°C° 0 mm 2 mps 746 mmHg 85%
22:00 +5°C° 0 mm 2 mps 746 mmHg 87%
23:00 +5°C° 0 mm 2 mps 746 mmHg 89%

21 April, Wednesday

Time Temperature Precipitation Wind Pressure Humidity
00:00 +5°C° 0 mm 2 mps 746 mmHg 91%
01:00 +4°C° 0 mm 3 mps 745 mmHg 93%
02:00 +3°C° 0 mm 3 mps 745 mmHg 92%
03:00 +3°C° 0 mm 3 mps 745 mmHg 92%
04:00 +3°C° 0 mm 3 mps 745 mmHg 92%
05:00 +3°C° 0 mm 4 mps 745 mmHg 87%
06:00 +4°C° 0 mm 4 mps 745 mmHg 82%
07:00 +5°C° 0 mm 5 mps 745 mmHg 77%
08:00 +6°C° 0 mm 5 mps 745 mmHg 71%
09:00 +7°C° 0 mm 5 mps 745 mmHg 66%
10:00 +9°C° 0 mm 6 mps 746 mmHg 61%
11:00 +9°C° 0 mm 6 mps 746 mmHg 57%
12:00 +10°C° 0 mm 6 mps 746 mmHg 54%
13:00 +11°C° 0 mm 6 mps 746 mmHg 50%
14:00 +10°C° 0 mm 5 mps 746 mmHg 53%
15:00 +10°C° 0 mm 5 mps 746 mmHg 55%
16:00 +11°C° 0 mm 4 mps 747 mmHg 57%
17:00 +10°C° 0 mm 3 mps 747 mmHg 62%
18:00 +9°C° 0 mm 2 mps 747 mmHg 66%
19:00 +9°C° 0 mm 1 mps 747 mmHg 71%
20:00 +7°C° 0 mm 2 mps 748 mmHg 73%
21:00 +7°C° 0 mm 2 mps 748 mmHg 74%
22:00 +6°C° 0 mm 2 mps 748 mmHg 76%
23:00 +6°C° 0 mm 2 mps 748 mmHg 76%

22 April, Thursday

Time Temperature Precipitation Wind Pressure Humidity
00:00 +6°C° 0 mm 2 mps 748 mmHg 76%
01:00 +6°C° 0 mm 2 mps 749 mmHg 76%
02:00 +6°C° 0 mm 2 mps 749 mmHg 76%
03:00 +7°C° 0 mm 2 mps 749 mmHg 76%
04:00 +7°C° 0 mm 2 mps 749 mmHg 77%
05:00 +8°C° 0 mm 3 mps 749 mmHg 74%
06:00 +9°C° 0 mm 3 mps 749 mmHg 71%
07:00 +10°C° 0 mm 3 mps 750 mmHg 68%
08:00 +12°C° 0 mm 4 mps 750 mmHg 64%
09:00 +13°C° 0 mm 4 mps 750 mmHg 61%
10:00 +14°C° 0 mm 5 mps 750 mmHg 57%
11:00 +15°C° 0.1 mm 4 mps 750 mmHg 53%
12:00 +17°C° 0.1 mm 4 mps 750 mmHg 48%
13:00 +18°C° 0.1 mm 4 mps 750 mmHg 44%
14:00 +18°C° 0 mm 3 mps 750 mmHg 46%
15:00 +18°C° 0 mm 3 mps 750 mmHg 48%
16:00 +18°C° 0 mm 3 mps 750 mmHg 50%
17:00 +16°C° 0 mm 3 mps 750 mmHg 54%
18:00 +14°C° 0 mm 3 mps 750 mmHg 58%
19:00 +12°C° 0 mm 3 mps 750 mmHg 63%
20:00 +12°C° 0 mm 3 mps 750 mmHg 66%
21:00 +11°C° 0 mm 3 mps 750 mmHg 70%
22:00 +10°C° 0 mm 3 mps 750 mmHg 74%
23:00 +10°C° 0.1 mm 3 mps 750 mmHg 79%
Show more